HWL2708 KSAN-KLAX

Flight info

Callsign HWL2708
Flight time 0h 24m
Altitude 10000
Route ECHHO2 SLI OLAAA2
Aircraft A346/H-SDE2E3FGHIJ3J4J5M1RWXY/LB1D1

Departure

Time 2026-05-08 07:23
Airport San Diego International Airport (KSAN)

Arrival

Time 2026-05-08 07:48
Airport Los Angeles International Airport (KLAX)
Time Latitude Longitude Altitude Speed Heading
2026-05-08 07:06 32.73456 -117.18543 32 ft 0 kts 196°
2026-05-08 07:19 32.73455 -117.18543 32 ft 1 kts 196°
2026-05-08 07:19 32.73432 -117.18551 32 ft 5 kts 196°
2026-05-08 07:19 32.73383 -117.18549 32 ft 8 kts 145°
2026-05-08 07:20 32.73349 -117.18469 32 ft 12 kts 107°
2026-05-08 07:20 32.73321 -117.18357 32 ft 15 kts 107°
2026-05-08 07:20 32.73287 -117.18220 31 ft 18 kts 106°
2026-05-08 07:20 32.73252 -117.18071 32 ft 19 kts 105°
2026-05-08 07:21 32.73215 -117.17909 32 ft 21 kts 105°
2026-05-08 07:21 32.73175 -117.17738 34 ft 20 kts 105°
2026-05-08 07:21 32.73141 -117.17605 36 ft 15 kts 111°
2026-05-08 07:21 32.73083 -117.17520 36 ft 11 kts 159°
2026-05-08 07:22 32.73016 -117.17550 35 ft 9 kts 264°
2026-05-08 07:22 32.73026 -117.17605 35 ft 0 kts 285°
2026-05-08 07:22 32.73034 -117.17639 35 ft 27 kts 285°
2026-05-08 07:23 32.73166 -117.18186 29 ft 106 kts 286°
2026-05-08 07:23 32.73432 -117.19280 33 ft 167 kts 286°
2026-05-08 07:23 32.73805 -117.20753 352 ft 192 kts 287°
2026-05-08 07:23 32.74274 -117.22289 1004 ft 198 kts 296°
2026-05-08 07:24 32.74950 -117.23665 1907 ft 191 kts 305°
2026-05-08 07:24 32.75747 -117.24970 2428 ft 201 kts 310°
2026-05-08 07:24 32.76683 -117.26279 2807 ft 218 kts 314°
2026-05-08 07:24 32.77815 -117.27632 3170 ft 239 kts 318°
2026-05-08 07:25 32.79121 -117.28944 3705 ft 254 kts 323°
2026-05-08 07:25 32.80582 -117.30151 4559 ft 257 kts 328°
2026-05-08 07:25 32.83746 -117.32037 6419 ft 259 kts 338°
2026-05-08 07:26 32.85426 -117.32742 7264 ft 262 kts 340°
2026-05-08 07:26 32.87168 -117.33450 8026 ft 269 kts 341°
2026-05-08 07:26 32.88947 -117.34168 8749 ft 277 kts 342°
2026-05-08 07:26 32.90808 -117.34917 9421 ft 284 kts 343°
2026-05-08 07:27 32.92695 -117.35677 9851 ft 289 kts 343°
2026-05-08 07:27 32.94605 -117.36465 9984 ft 292 kts 340°
2026-05-08 07:27 32.96430 -117.37488 9959 ft 293 kts 332°
2026-05-08 07:27 32.98144 -117.38812 9980 ft 294 kts 324°
2026-05-08 07:28 32.99720 -117.40364 9968 ft 294 kts 321°
2026-05-08 07:28 33.01262 -117.41979 10020 ft 294 kts 320°
2026-05-08 07:28 33.02796 -117.43598 10004 ft 294 kts 320°
2026-05-08 07:28 33.04326 -117.45210 9942 ft 294 kts 320°
2026-05-08 07:29 33.05869 -117.46832 9936 ft 293 kts 320°
2026-05-08 07:29 33.07390 -117.48427 9955 ft 293 kts 320°
2026-05-08 07:29 33.08918 -117.50029 9963 ft 293 kts 321°
2026-05-08 07:29 33.10458 -117.51642 9999 ft 293 kts 320°
2026-05-08 07:30 33.12005 -117.53263 10003 ft 294 kts 320°
2026-05-08 07:30 33.13527 -117.54859 9960 ft 293 kts 320°
2026-05-08 07:30 33.15059 -117.56466 9972 ft 294 kts 320°
2026-05-08 07:30 33.16600 -117.58083 9954 ft 294 kts 320°
2026-05-08 07:31 33.18132 -117.59703 9966 ft 293 kts 319°
2026-05-08 07:31 33.19620 -117.61340 9974 ft 294 kts 319°
2026-05-08 07:31 33.21118 -117.63009 9943 ft 294 kts 319°
2026-05-08 07:31 33.22613 -117.64670 9802 ft 293 kts 319°
2026-05-08 07:32 33.24106 -117.66326 9671 ft 291 kts 318°
2026-05-08 07:32 33.25579 -117.67956 9553 ft 290 kts 319°
2026-05-08 07:32 33.27156 -117.69488 9424 ft 288 kts 325°
2026-05-08 07:32 33.28820 -117.70790 9291 ft 287 kts 330°
2026-05-08 07:33 33.30531 -117.71990 9167 ft 286 kts 330°
2026-05-08 07:33 33.32267 -117.73192 9054 ft 286 kts 330°
2026-05-08 07:33 33.33979 -117.74377 8931 ft 285 kts 330°
2026-05-08 07:33 33.35690 -117.75564 8806 ft 284 kts 330°
2026-05-08 07:34 33.37400 -117.76751 8682 ft 283 kts 330°
2026-05-08 07:34 33.39090 -117.77927 8558 ft 281 kts 330°
2026-05-08 07:34 33.40772 -117.79100 8436 ft 280 kts 330°
2026-05-08 07:34 33.42457 -117.80276 8312 ft 279 kts 330°
2026-05-08 07:35 33.44132 -117.81444 8186 ft 278 kts 330°
2026-05-08 07:35 33.45799 -117.82608 8059 ft 277 kts 330°
2026-05-08 07:35 33.47477 -117.83781 7943 ft 276 kts 330°
2026-05-08 07:35 33.49124 -117.84931 7822 ft 275 kts 330°
2026-05-08 07:36 33.50782 -117.86091 7696 ft 275 kts 329°
2026-05-08 07:36 33.52443 -117.87252 7577 ft 274 kts 329°
2026-05-08 07:36 33.54069 -117.88391 7463 ft 273 kts 329°
2026-05-08 07:36 33.55711 -117.89542 7336 ft 272 kts 329°
2026-05-08 07:37 33.57356 -117.90694 7206 ft 271 kts 329°
2026-05-08 07:37 33.58968 -117.91825 7086 ft 270 kts 329°
2026-05-08 07:37 33.60597 -117.92967 6966 ft 268 kts 329°
2026-05-08 07:37 33.62214 -117.94102 6956 ft 267 kts 329°
2026-05-08 07:38 33.63806 -117.95220 6955 ft 268 kts 329°
2026-05-08 07:38 33.65430 -117.96361 6957 ft 268 kts 329°
2026-05-08 07:38 33.67036 -117.97490 6963 ft 267 kts 329°
2026-05-08 07:38 33.68629 -117.98608 6964 ft 267 kts 329°
2026-05-08 07:39 33.70236 -117.99738 6958 ft 266 kts 329°
2026-05-08 07:39 33.71846 -118.00871 6959 ft 267 kts 329°
2026-05-08 07:39 33.73447 -118.01999 6964 ft 266 kts 329°
2026-05-08 07:39 33.75035 -118.03118 6956 ft 260 kts 329°
2026-05-08 07:40 33.76559 -118.04192 6951 ft 245 kts 329°
2026-05-08 07:40 33.78018 -118.05192 6950 ft 234 kts 333°
2026-05-08 07:40 33.79496 -118.06000 6919 ft 234 kts 337°
2026-05-08 07:40 33.81025 -118.06740 6548 ft 238 kts 338°
2026-05-08 07:41 33.82563 -118.07474 6196 ft 240 kts 338°
2026-05-08 07:41 33.84122 -118.08221 5842 ft 236 kts 338°
2026-05-08 07:41 33.85635 -118.08946 5571 ft 234 kts 338°
2026-05-08 07:41 33.87122 -118.09660 5279 ft 225 kts 338°
2026-05-08 07:42 33.88583 -118.10341 5007 ft 217 kts 343°
2026-05-08 07:42 33.90051 -118.10707 5013 ft 211 kts 353°
2026-05-08 07:42 33.91476 -118.10825 4836 ft 203 kts 356°
2026-05-08 07:42 33.92875 -118.11144 4493 ft 202 kts 339°
2026-05-08 07:43 33.94079 -118.12009 4217 ft 199 kts 325°
2026-05-08 07:43 33.95166 -118.13025 3960 ft 195 kts 319°
2026-05-08 07:43 33.95880 -118.14383 3676 ft 194 kts 288°
2026-05-08 07:43 33.96012 -118.15992 3565 ft 192 kts 271°
2026-05-08 07:44 33.95897 -118.17635 3414 ft 195 kts 264°
2026-05-08 07:44 33.95707 -118.19236 3117 ft 192 kts 264°
2026-05-08 07:44 33.95522 -118.20858 2858 ft 192 kts 264°
2026-05-08 07:44 33.95351 -118.22442 2626 ft 191 kts 264°
2026-05-08 07:45 33.95187 -118.24010 2362 ft 182 kts 264°
2026-05-08 07:45 33.95036 -118.25481 2121 ft 173 kts 264°
2026-05-08 07:45 33.94899 -118.26903 1920 ft 170 kts 265°
2026-05-08 07:45 33.94763 -118.28310 1740 ft 165 kts 264°
2026-05-08 07:46 33.94622 -118.29696 1515 ft 164 kts 264°
2026-05-08 07:46 33.94481 -118.31044 1297 ft 163 kts 264°
2026-05-08 07:46 33.94340 -118.32403 1079 ft 162 kts 264°
2026-05-08 07:46 33.94203 -118.33727 869 ft 160 kts 263°
2026-05-08 07:47 33.94063 -118.35085 655 ft 159 kts 263°
2026-05-08 07:47 33.93928 -118.36399 448 ft 158 kts 263°
2026-05-08 07:47 33.93794 -118.37710 237 ft 157 kts 263°
2026-05-08 07:47 33.93663 -118.38995 121 ft 145 kts 263°
2026-05-08 07:48 33.93567 -118.39932 129 ft 74 kts 263°
2026-05-08 07:48 33.93533 -118.40265 134 ft 21 kts 263°
2026-05-08 07:48 33.93531 -118.40449 137 ft 21 kts 283°
2026-05-08 07:48 33.93590 -118.40615 140 ft 21 kts 290°
2026-05-08 07:49 33.93594 -118.40794 142 ft 21 kts 272°
2026-05-08 07:49 33.93689 -118.40902 143 ft 20 kts 348°
2026-05-08 07:49 33.93824 -118.40916 145 ft 16 kts
2026-05-08 07:49 33.93877 -118.40831 143 ft 14 kts 89°
2026-05-08 07:50 33.93914 -118.40749 142 ft 10 kts 39°
2026-05-08 07:50 33.93940 -118.40726 142 ft 0 kts 34°